Preview of NWS' New Version of Forecast
This preview is not operational and should not be used for support decisions.

Regional Weather Roundup (RWR)

Issued by National Weather Service (NWS)

                            
000
ASUS45 KCYS 181610
RWRWY 

WYOMING REGIONAL WEATHER ROUNDUP
NATIONAL WEATHER SERVICE CHEYENNE WY
1000 AM MDT THU APR 18 2019

NOTE:  "FAIR" INDICATES FEW OR NO CLOUDS BELOW 12,000 FEET
WITH NO SIGNIFICANT WEATHER AND/OR OBSTRUCTIONS TO VISIBILITY.

WYZ001-181700-
YELLOWSTONE NATIONAL PARK
  
CITY           SKY/WX    TMP DP  RH WIND       PRES   REMARKS
LK YELLOWSTONE NOT AVBL                                               
W YELLOWSTONE  NOT AVBL                                               

$$
WYZ002>013-054>058-071-098>099-181700-
NORTHERN WYOMING
  
CITY           SKY/WX    TMP DP  RH WIND       PRES   REMARKS
JACKSON        FAIR      40  30  67 NE7       30.35S                  
CODY           FAIR      51  21  30 VRB6      30.26F                  
GREYBULL       FAIR      55  26  32 NW22      30.23F                  
WORLAND        FAIR      54  25  32 N16       30.25S                  
SHERIDAN       PTSUNNY   56  28  34 N23G32    30.21S                  
BUFFALO        FAIR      50  25  37 N29G44    30.18R                  
GILLETTE       FAIR      49  30  48 NW24G33   30.16R                  
HULETT         PTSUNNY   46  32  57 NW17G25   30.16R                  
NEWCASTLE      FAIR      46  30  53 NW25      30.14                   

$$
WYZ014>020-022>026-101>103-181700-
CENTRAL WYOMING
  
CITY           SKY/WX    TMP DP  RH WIND       PRES   REMARKS
BIG PINEY      FAIR      50  22  33 N10       30.32R                  
PINEDALE       FAIR      45  25  45 W17G25    30.30S                  
DUBOIS         FAIR      45  18  33 W23G29    30.28S                  
LANDER         FAIR      48  25  40 SE15      30.27F                  
RIVERTON       FAIR      48  23  37 NE7       30.28F                  
CASPER         FAIR      48  25  40 NW17      30.24R                  
DOUGLAS        FAIR      48  31  51 NW23G32   30.20F                  

$$
WYZ021-027>030-104>119-181700-
SOUTHERN WYOMING
  
CITY           SKY/WX    TMP DP  RH WIND       PRES   REMARKS
EVANSTON       FAIR      41  28  60 SW12      30.39S                  
KEMMERER       FAIR      41  30  65 W25G32    30.35F                  
ROCK SPRINGS   FAIR      45  30  55 W17       30.33S                  
DIXON          FAIR      45  30  55 W7        30.35S                  
RAWLINS        FAIR      43  22  43 NW13G18   30.31R                  
SARATOGA       PTSUNNY   41  23  48 NW8       30.31R                  
LARAMIE        PTSUNNY   41  24  51 NW24G36   30.22S                  
CHEYENNE       CLOUDY    40  32  73 N14G25    30.21R WCI  32          
TORRINGTON     FAIR      50  29  44 NW23G35   30.16R                  
PINE BLUFFS    FAIR      45  32  61 N29G36    30.19S                  

$$